Flag Weather past 2 weeks in Belém, Para, Brazil

Now
82 °F

Passing clouds.


Feels Like: 86 °F
Forecast: N/A
Wind: 14 mph from Northeast

Location: Belem Aeroporto

Current Time: Nov 23, 2014 at 7:51:15 PM

Latest Report: Nov 23, 2014 at 7:00 PM


Visibility: N/A

Pressure: 29.80 "Hg

Humidity: 66%

Dew point: 70 °F

Location of BelémLocation

Historic Weather in Belém — Graph

°F

Belém temperature yesterday

Maximum temperature yesterday: 88 °F (at 11:00 AM)
Minimum temperature yesterday: 75 °F (at 5:00 AM)
Average temperature yesterday: 81 °F

Past Weeks' High & Low Weather Summary

 TemperatureHumidityPressure
High91 °F (Nov 10, 1:00 PM)100% (Nov 18, 3:00 AM)29.95 "Hg (Nov 18, 3:00 AM)
Low73 °F (Nov 10, 5:00 AM)46% (Nov 9, 1:00 PM)29.71 "Hg (Nov 11, 4:00 PM)
Average81 °F76%29.82 "Hg
* Reported Nov 8 6:00 PM — Nov 23 6:00 PM, Belém, Weather by CustomWeather, © 2014

Note: Actual official high and low records may vary slightly from our data, if they occured in-between our weather recording intervals... More about our weather records

Advertising

Belém weather history for previous 24 hours

 ConditionsComfort  
Time TempWeatherWind HumidityBarometerVisibility
6:00 PM
Nov 23
84 °FScattered clouds.12 mph70%29.80 "HgN/A
5:00 PM86 °FScattered clouds.12 mph66%29.77 "HgN/A
4:00 PM86 °FScattered clouds.14 mph70%29.80 "HgN/A
3:00 PM84 °FScattered clouds.12 mph74%29.80 "HgN/A
2:00 PM86 °FPartly sunny.14 mph70%29.83 "HgN/A
1:00 PM86 °FPartly sunny.12 mph70%29.86 "HgN/A
12:00 PM90 °FPartly sunny.9 mph52%29.86 "HgN/A
11:00 AM88 °FScattered clouds.9 mph55%29.89 "HgN/A
10:00 AM86 °FScattered clouds.13 mph62%29.89 "HgN/A
9:00 AM84 °FScattered clouds.12 mph70%29.89 "HgN/A
8:00 AM81 °FSunny.12 mph79%29.86 "Hg10 mi
7:00 AM77 °FSunny.No wind94%29.83 "Hg10 mi
6:00 AM75 °FClear.2 mph94%29.83 "Hg10 mi
5:00 AM75 °FClear.2 mph89%29.80 "Hg10 mi
4:00 AM77 °FClear.5 mph83%29.80 "Hg10 mi
3:00 AM77 °FClear.5 mph83%29.80 "Hg10 mi
2:00 AM77 °FClear.5 mph83%29.80 "Hg10 mi
1:00 AM77 °FClear.3 mph83%29.83 "Hg10 mi
12:00 AM77 °FClear.2 mph83%29.86 "Hg10 mi
11:00 PM
Nov 22
79 °FClear.5 mph79%29.86 "Hg10 mi
10:00 PM79 °FPassing clouds.6 mph79%29.86 "HgN/A
9:00 PM79 °FPassing clouds.8 mph79%29.83 "HgN/A
8:00 PM81 °FPassing clouds.13 mph79%29.80 "HgN/A
7:00 PM81 °FScattered clouds.5 mph79%29.77 "HgN/A
Weather by CustomWeather, © 2014

See weather overviewHow to use our weather pages